�������l�o���
Date,Time,MP-1(��Sv/h),MP-2(��Sv/h),MP-3(��Sv/h),MP-4(��Sv/h),MP-5(��Sv/h),MP-6(��Sv/h),MP-7(��Sv/h),MP-8(��Sv/h),����,����(m/s),���J
2019/12/22,00:00,0.722,1.045,0.700,1.317,0.915,0.413,0.722,0.684,��,2.4,��
2019/12/22,00:10,0.725,1.044,0.699,1.317,0.917,0.411,0.724,0.685,���쐼,3.1,��
2019/12/22,00:20,0.726,1.046,0.701,1.315,0.916,0.413,0.722,0.684,��,3.0,��
2019/12/22,00:30,0.725,1.044,0.703,1.318,0.914,0.412,0.723,0.683,���쐼,3.1,��
2019/12/22,00:40,0.726,1.045,0.700,1.319,0.916,0.415,0.722,0.684,���쐼,3.5,��
2019/12/22,00:50,0.724,1.046,0.701,1.318,0.918,0.412,0.724,0.685,���쐼,4.5,��
2019/12/22,01:00,0.722,1.044,0.701,1.316,0.917,0.413,0.724,0.684,���쐼,3.8,��
2019/12/22,01:10,0.724,1.046,0.702,1.318,0.915,0.412,0.721,0.684,���쐼,2.9,��
2019/12/22,01:20,0.723,1.045,0.701,1.315,0.914,0.412,0.723,0.684,��,2.6,��
2019/12/22,01:30,0.722,1.043,0.700,1.316,0.916,0.413,0.723,0.685,���k��,2.2,��
2019/12/22,01:40,0.723,1.044,0.701,1.317,0.916,0.412,0.722,0.683,���k��,3.3,��
2019/12/22,01:50,0.723,1.044,0.702,1.319,0.917,0.413,0.721,0.684,���k��,2.2,��
2019/12/22,02:00,0.723,1.045,0.701,1.320,0.915,0.412,0.721,0.683,�k��,3.3,��
2019/12/22,02:10,0.724,1.045,0.701,1.319,0.916,0.411,0.722,0.683,���k��,4.0,��
2019/12/22,02:20,0.723,1.044,0.700,1.317,0.915,0.412,0.721,0.683,���k��,6.3,��
2019/12/22,02:30,0.721,1.043,0.701,1.318,0.916,0.412,0.721,0.682,���k��,7.5,��
2019/12/22,02:40,0.722,1.046,0.702,1.317,0.915,0.412,0.722,0.684,���k��,6.6,��
2019/12/22,02:50,0.723,1.043,0.701,1.319,0.913,0.412,0.722,0.682,���k��,5.3,��
2019/12/22,03:00,0.720,1.044,0.700,1.318,0.915,0.411,0.722,0.684,���k��,4.5,��
2019/12/22,03:10,0.721,1.044,0.701,1.317,0.915,0.411,0.720,0.683,��,4.0,��
2019/12/22,03:20,0.722,1.045,0.701,1.317,0.915,0.411,0.721,0.684,��,3.3,��
2019/12/22,03:30,0.722,1.046,0.701,1.317,0.916,0.412,0.721,0.682,�k��,3.0,��
2019/12/22,03:40,0.722,1.046,0.700,1.319,0.917,0.411,0.722,0.683,�k�k��,3.8,��
2019/12/22,03:50,0.723,1.045,0.702,1.318,0.915,0.412,0.722,0.683,�k�k��,4.1,��
2019/12/22,04:00,0.720,1.045,0.699,1.318,0.914,0.411,0.721,0.684,�k�k��,4.7,��
2019/12/22,04:10,0.720,1.042,0.700,1.317,0.914,0.411,0.721,0.683,�k�k��,4.4,��
2019/12/22,04:20,0.723,1.043,0.699,1.318,0.916,0.412,0.719,0.683,�k�k��,4.1,��
2019/12/22,04:30,0.720,1.045,0.700,1.318,0.914,0.410,0.721,0.684,�k�k��,3.9,��
2019/12/22,04:40,0.723,1.045,0.700,1.318,0.915,0.411,0.720,0.684,�k�k��,3.8,��
2019/12/22,04:50,0.722,1.044,0.701,1.318,0.915,0.411,0.722,0.684,�k�k��,4.0,��
2019/12/22,05:00,0.722,1.042,0.700,1.317,0.914,0.410,0.721,0.683,�k��,2.9,��
2019/12/22,05:10,0.722,1.042,0.699,1.318,0.915,0.413,0.721,0.683,�k�k��,3.2,��
2019/12/22,05:20,0.722,1.045,0.699,1.317,0.912,0.409,0.719,0.683,�k�k��,3.6,��
2019/12/22,05:30,0.722,1.044,0.698,1.315,0.915,0.411,0.720,0.682,�k�k��,3.3,��
2019/12/22,05:40,0.720,1.042,0.699,1.318,0.913,0.411,0.722,0.685,�k�k��,3.0,��
2019/12/22,05:50,0.722,1.043,0.700,1.316,0.914,0.411,0.721,0.684,�k�k��,2.7,��
2019/12/22,06:00,0.722,1.044,0.699,1.318,0.914,0.411,0.722,0.683,�k�k��,2.4,��
2019/12/22,06:10,0.720,1.043,0.699,1.317,0.915,0.411,0.721,0.683,�k�k��,2.4,��
2019/12/22,06:20,0.720,1.042,0.700,1.315,0.913,0.412,0.720,0.684,�k�k��,3.1,��
2019/12/22,06:30,0.721,1.043,0.699,1.320,0.914,0.411,0.719,0.683,�k�k��,3.0,��
2019/12/22,06:40,0.721,1.044,0.700,1.315,0.914,0.410,0.721,0.685,�k��,2.6,��
2019/12/22,06:50,0.720,1.043,0.701,1.319,0.914,0.410,0.721,0.683,�k��,3.1,��
2019/12/22,07:00,0.723,1.044,0.699,1.318,0.913,0.412,0.720,0.684,�k�k��,7.5,��
2019/12/22,07:10,0.719,1.043,0.699,1.318,0.916,0.411,0.720,0.683,�k�k��,8.0,��
2019/12/22,07:20,0.720,1.046,0.700,1.319,0.914,0.411,0.721,0.684,�k��,3.5,��
2019/12/22,07:30,0.718,1.045,0.699,1.316,0.915,0.412,0.720,0.681,�k��,4.5,��
2019/12/22,07:40,0.721,1.046,0.700,1.317,0.914,0.411,0.720,0.684,�k��,3.8,��
2019/12/22,07:50,0.720,1.044,0.700,1.317,0.914,0.410,0.723,0.684,�k��,3.8,��
2019/12/22,08:00,0.722,1.046,0.700,1.315,0.915,0.411,0.721,0.685,�k��,4.3,��
2019/12/22,08:10,0.721,1.047,0.699,1.321,0.915,0.408,0.720,0.684,�k��,4.7,��
2019/12/22,08:20,0.720,1.044,0.701,1.318,0.916,0.411,0.721,0.685,�k�k��,5.2,��
2019/12/22,08:30,0.722,1.043,0.700,1.319,0.915,0.410,0.722,0.684,�k�k��,5.2,��
2019/12/22,08:40,0.721,1.044,0.699,1.318,0.914,0.410,0.722,0.684,�k�k��,3.8,��
2019/12/22,08:50,0.723,1.044,0.701,1.319,0.914,0.409,0.721,0.686,�k,3.2,��
2019/12/22,09:00,0.721,1.045,0.702,1.319,0.915,0.410,0.722,0.683,�k�k��,3.0,��
2019/12/22,09:10,0.722,1.041,0.700,1.318,0.915,0.412,0.722,0.684,�k�k��,4.4,��
2019/12/22,09:20,0.724,1.044,0.700,1.319,0.916,0.412,0.722,0.685,�k�k��,4.5,��
2019/12/22,09:30,0.721,1.047,0.701,1.319,0.915,0.411,0.723,0.684,�k,4.1,��
2019/12/22,09:40,0.722,1.046,0.701,1.318,0.914,0.410,0.723,0.684,�k�k��,4.9,��
2019/12/22,09:50,0.722,1.046,0.702,1.317,0.915,0.411,0.723,0.685,�k�k��,3.6,��
2019/12/22,10:00,0.723,1.046,0.701,1.318,0.917,0.411,0.720,0.684,�k��,3.9,��
2019/12/22,10:10,0.722,1.048,0.701,1.317,0.916,0.411,0.720,0.685,�k��,3.0,��
2019/12/22,10:20,0.723,1.045,0.704,1.318,0.913,0.411,0.720,0.683,�k��,3.0,��
2019/12/22,10:30,0.724,1.047,0.702,1.319,0.914,0.412,0.721,0.685,�k�k��,2.7,��
2019/12/22,10:40,0.725,1.046,0.704,1.320,0.918,0.411,0.722,0.685,�k�k��,2.1,��
2019/12/22,10:50,0.722,1.045,0.702,1.319,0.918,0.412,0.721,0.685,�k,3.5,��
2019/12/22,11:00,0.724,1.046,0.700,1.319,0.918,0.409,0.722,0.684,�k�k��,4.5,��
2019/12/22,11:10,0.723,1.046,0.701,1.318,0.917,0.411,0.721,0.685,�k�k��,5.0,��
2019/12/22,11:20,0.723,1.046,0.700,1.320,0.917,0.412,0.722,0.684,�k�k��,4.1,��
2019/12/22,11:30,0.724,1.044,0.703,1.319,0.917,0.412,0.719,0.686,�k�k��,4.5,��
2019/12/22,11:40,0.724,1.046,0.702,1.318,0.918,0.411,0.721,0.686,�k�k��,3.5,��
2019/12/22,11:50,0.724,1.047,0.702,1.320,0.919,0.410,0.719,0.684,�k�k��,3.4,��
2019/12/22,12:00,0.724,1.048,0.702,1.321,0.917,0.410,0.721,0.684,�k�k��,3.1,��
2019/12/22,12:10,0.725,1.045,0.701,1.320,0.919,0.411,0.719,0.685,�k�k��,2.6,��
2019/12/22,12:20,0.724,1.047,0.703,1.319,0.918,0.410,0.720,0.684,�k,1.9,��
2019/12/22,12:30,0.725,1.049,0.702,1.319,0.916,0.412,0.721,0.683,�k��,1.9,��
2019/12/22,12:40,0.725,1.048,0.701,1.319,0.918,0.410,0.721,0.684,�k�k��,1.9,��
2019/12/22,12:50,0.723,1.047,0.702,1.319,0.916,0.412,0.720,0.685,�k��,2.0,��
2019/12/22,13:00,0.725,1.049,0.701,1.318,0.917,0.410,0.719,0.684,�k�k��,1.4,��
2019/12/22,13:10,0.725,1.047,0.702,1.320,0.919,0.411,0.720,0.683,�k��,1.4,��
2019/12/22,13:20,0.724,1.049,0.703,1.321,0.917,0.411,0.721,0.686,���k��,1.4,��
2019/12/22,13:30,0.724,1.045,0.702,1.318,0.919,0.412,0.722,0.684,�k��,2.1,��
2019/12/22,13:40,0.724,1.048,0.703,1.319,0.920,0.411,0.720,0.684,�k��,2.2,��
2019/12/22,13:50,0.725,1.048,0.701,1.321,0.918,0.412,0.722,0.684,�k��,1.7,��
2019/12/22,14:00,0.726,1.049,0.703,1.321,0.918,0.412,0.722,0.686,�k��,1.8,��
2019/12/22,14:10,0.725,1.049,0.703,1.318,0.919,0.413,0.723,0.686,�k�k��,1.6,��
2019/12/22,14:20,0.725,1.047,0.702,1.319,0.918,0.413,0.720,0.687,�k�k��,2.1,��
2019/12/22,14:30,0.725,1.048,0.702,1.318,0.918,0.412,0.723,0.686,�k��,1.3,��
2019/12/22,14:40,0.725,1.046,0.701,1.319,0.919,0.412,0.721,0.685,�k��,2.1,��
2019/12/22,14:50,0.723,1.047,0.703,1.318,0.916,0.412,0.721,0.685,�k,1.9,��
2019/12/22,15:00,0.726,1.048,0.703,1.319,0.920,0.414,0.720,0.684,�k,1.3,��
2019/12/22,15:10,0.724,1.048,0.701,1.319,0.919,0.414,0.723,0.685,�k�k��,1.7,��
2019/12/22,15:20,0.723,1.045,0.702,1.317,0.916,0.414,0.721,0.684,�k�k��,1.4,��
2019/12/22,15:30,0.723,1.048,0.702,1.318,0.919,0.414,0.721,0.684,�k,1.4,��
2019/12/22,15:40,0.725,1.043,0.703,1.321,0.918,0.413,0.721,0.685,�k,1.8,��
2019/12/22,15:50,0.724,1.047,0.704,1.321,0.918,0.412,0.720,0.683,�k��,1.3,��
2019/12/22,16:00,0.723,1.046,0.700,1.320,0.918,0.414,0.723,0.684,�k�k��,1.2,��
2019/12/22,16:10,0.725,1.050,0.703,1.319,0.917,0.413,0.721,0.686,�k�k��,1.6,��
2019/12/22,16:20,0.723,1.048,0.701,1.318,0.918,0.414,0.721,0.685,�k��,1.6,��
2019/12/22,16:30,0.725,1.047,0.701,1.320,0.917,0.415,0.721,0.684,�k�k��,1.4,��
2019/12/22,16:40,0.725,1.049,0.701,1.319,0.919,0.413,0.721,0.685,�k�k��,1.7,��
2019/12/22,16:50,0.726,1.047,0.703,1.319,0.917,0.412,0.723,0.683,�k�k��,1.9,��
2019/12/22,17:00,0.723,1.047,0.702,1.319,0.918,0.414,0.722,0.685,�k,1.8,��
2019/12/22,17:10,0.725,1.049,0.703,1.318,0.916,0.413,0.722,0.685,�k��,2.3,��
2019/12/22,17:20,0.723,1.047,0.702,1.319,0.916,0.411,0.723,0.684,�k�k��,2.9,��
2019/12/22,17:30,0.726,1.048,0.701,1.320,0.917,0.411,0.723,0.683,�k�k��,2.0,��
2019/12/22,17:40,0.724,1.048,0.703,1.319,0.916,0.412,0.721,0.685,�k�k��,2.7,��
2019/12/22,17:50,0.724,1.049,0.702,1.320,0.918,0.413,0.722,0.684,�k�k��,2.1,��
2019/12/22,18:00,0.725,1.047,0.702,1.320,0.917,0.413,0.721,0.685,�k�k��,2.8,��
2019/12/22,18:10,0.725,1.045,0.701,1.321,0.918,0.410,0.722,0.684,�k,2.0,��
2019/12/22,18:20,0.723,1.048,0.702,1.318,0.917,0.413,0.721,0.684,�k�k��,2.1,��
2019/12/22,18:30,0.724,1.047,0.701,1.320,0.919,0.414,0.722,0.685,�k�k��,2.3,��
2019/12/22,18:40,0.724,1.048,0.702,1.319,0.918,0.412,0.722,0.685,�k��,3.0,��
2019/12/22,18:50,0.724,1.047,0.702,1.321,0.918,0.411,0.725,0.686,�k��,3.5,��
2019/12/22,19:00,0.724,1.046,0.703,1.320,0.917,0.411,0.722,0.685,�k�k��,3.8,��
2019/12/22,19:10,0.722,1.047,0.702,1.320,0.915,0.413,0.723,0.685,�k��,4.2,��
2019/12/22,19:20,0.724,1.047,0.702,1.321,0.918,0.412,0.723,0.685,�k�k��,3.9,��
2019/12/22,19:30,0.724,1.046,0.703,1.321,0.917,0.413,0.723,0.685,�k��,3.8,�L
2019/12/22,19:40,0.724,1.047,0.704,1.320,0.918,0.412,0.723,0.685,�k��,3.5,�L
2019/12/22,19:50,0.725,1.048,0.703,1.320,0.917,0.413,0.723,0.686,�k��,3.3,�L
2019/12/22,20:00,0.724,1.050,0.704,1.319,0.918,0.413,0.724,0.684,�k�k��,2.4,�L
2019/12/22,20:10,0.728,1.048,0.704,1.322,0.919,0.414,0.724,0.685,�k��,3.2,�L
2019/12/22,20:20,0.726,1.050,0.705,1.323,0.919,0.415,0.724,0.686,�k�k��,1.9,�L
2019/12/22,20:30,0.726,1.047,0.705,1.322,0.919,0.415,0.725,0.684,�k,1.1,�L
2019/12/22,20:40,0.727,1.046,0.705,1.322,0.918,0.416,0.723,0.684,�k,1.4,�L
2019/12/22,20:50,0.725,1.045,0.703,1.323,0.916,0.416,0.725,0.685,�k�k��,1.9,�L
2019/12/22,21:00,0.727,1.045,0.704,1.324,0.916,0.416,0.722,0.685,�k��,2.2,�L
2019/12/22,21:10,0.724,1.045,0.704,1.318,0.913,0.414,0.724,0.684,�k��,3.2,�L
2019/12/22,21:20,0.724,1.039,0.704,1.319,0.911,0.417,0.723,0.682,�k��,3.3,�L
2019/12/22,21:30,0.721,1.039,0.703,1.317,0.912,0.414,0.722,0.684,�k�k��,3.0,�L
2019/12/22,21:40,0.722,1.035,0.702,1.319,0.912,0.414,0.722,0.683,�k��,3.8,�L
2019/12/22,21:50,0.721,1.033,0.700,1.316,0.909,0.414,0.722,0.683,�k��,4.4,�L
2019/12/22,22:00,0.721,1.035,0.699,1.316,0.908,0.414,0.721,0.682,�k��,4.7,�L
2019/12/22,22:10,0.719,1.027,0.697,1.312,0.904,0.415,0.720,0.683,�k��,4.6,�L
2019/12/22,22:20,0.716,1.026,0.696,1.309,0.902,0.414,0.720,0.682,�k��,5.0,�L
2019/12/22,22:30,0.717,1.024,0.696,1.304,0.899,0.413,0.718,0.679,�k��,4.9,�L
2019/12/22,22:40,0.715,1.022,0.694,1.301,0.896,0.414,0.718,0.680,�k��,5.5,�L
2019/12/22,22:50,0.716,1.019,0.694,1.301,0.897,0.414,0.718,0.679,�k��,5.5,�L
2019/12/22,23:00,0.713,1.018,0.693,1.300,0.895,0.414,0.716,0.679,�k��,5.8,�L
2019/12/22,23:10,0.711,1.014,0.693,1.295,0.894,0.413,0.716,0.678,�k��,5.8,�L
2019/12/22,23:20,0.712,1.016,0.690,1.292,0.895,0.412,0.716,0.679,�k��,6.1,�L
2019/12/22,23:30,0.711,1.016,0.689,1.292,0.893,0.411,0.716,0.679,�k��,6.4,�L
2019/12/22,23:40,0.709,1.014,0.690,1.290,0.891,0.413,0.716,0.678,�k��,4.7,�L
2019/12/22,23:50,0.709,1.010,0.687,1.290,0.890,0.411,0.715,0.678,�k��,5.2,�L
